Volver al catálogo

STARLINK-5025

ActivoComunicacionesVLEO
NORAD 53920·PAYLOAD·🇺🇸 United States

Lanzado Sep 24, 2022 desde Cape Canaveral Space Force Station

Loading…

Próximos Pases (próximas 24 horas)

TLE

ActualizadoSource: CelesTrak SupGP

Época: Sep 15, 2026, 01:42 UTC

1 53920C 22119AL  26258.07131944 -.00006827  00000+0 -21953-3 0  2581
2 53920  53.1590 173.1180 0001561  87.9813 164.3967 15.31704831    14

Sigue STARLINK-5025 en tiempo real con AllMySat

Download on the App Store